Wind_Speed
29 28 29 28 27 29 31 33 35 33 34 36 37 38 40 42 44 45 47 48 49 50 51 52 53 54 55 55 56 56 56 56 56 56 55 56 56 56 57 58 58 58 57 57
28 29 29 27 27 30 31 33 35 36 37 39 41 42 44 45 47 49 50 51 52 53 54 55 56 57 57 58 58 58 58 58 58 58 57 57 56 56 57 57 57 56 56 57
29 29 29 28 29 31 33 34 37 39 40 42 44 45 47 49 51 52 53 55 56 57 59 59 60 61 61 61 61 61 60 60 59 59 58 57 57 57 57 56 56 56 56 57
30 30 31 30 32 34 36 37 39 41 43 45 47 48 50 52 55 56 58 60 61 62 63 64 64 64 64 64 64 63 63 62 61 60 59 59 58 58 58 57 57 57 57 58
34 35 35 33 35 38 40 41 43 45 47 48 50 52 53 56 59 61 62 64 65 66 67 68 68 68 67 66 65 65 64 62 61 61 59 59 58 58 58 57 57 58 58 59
37 39 39 38 40 43 45 47 48 50 52 54 56 57 58 61 63 65 67 68 70 70 71 71 70 70 69 68 66 65 64 62 61 61 60 59 58 57 57 57 57 57 58 59
38 42 42 43 46 47 49 52 53 55 57 59 61 63 65 67 69 70 72 73 73 74 74 73 72 71 69 68 66 65 64 62 61 60 59 58 58 57 57 57 57 57 58 58
41 44 45 48 50 52 54 56 57 59 62 63 65 67 69 71 72 74 75 76 76 76 75 73 72 70 68 66 65 64 62 60 59 58 58 58 58 57 57 57 57 57 57 57
45 47 48 51 53 56 58 60 62 64 65 68 69 71 73 74 76 77 77 77 77 76 74 71 69 68 66 64 63 62 60 59 58 58 58 58 57 57 57 57 57 56 55 55
49 49 51 53 56 58 60 63 65 67 69 71 73 75 76 78 78 78 78 77 75 73 70 68 66 65 64 63 62 60 59 58 58 57 56 56 56 56 55 55 54 54 54 54
53 53 56 58 60 62 64 66 68 70 72 74 76 77 78 79 78 77 75 73 71 69 67 65 63 62 62 62 60 58 57 56 56 55 54 54 53 53 53 53 54 53 53 54
56 57 60 62 64 66 68 69 71 73 74 76 78 78 78 77 76 73 71 69 67 65 64 62 61 60 60 59 58 57 55 54 53 53 52 51 50 49 50 50 51 52 52 53
59 61 63 65 67 69 70 72 74 75 76 77 77 76 75 74 71 69 67 66 65 63 62 61 60 59 58 57 56 55 54 52 51 50 49 48 47 47 46 46 47 49 50 51
63 65 65 67 69 70 72 73 74 75 75 75 74 72 71 69 67 65 64 63 62 61 60 59 58 57 56 55 54 53 51 50 49 48 46 45 44 45 45 46 46 47 49 50
65 67 68 69 71 72 73 74 74 73 72 70 69 67 66 65 63 62 61 61 60 58 58 57 56 55 54 53 52 50 48 47 46 45 44 43 43 44 46 47 47 48 49 49
66 68 69 70 71 72 72 72 71 69 67 65 64 63 63 62 61 60 59 59 58 56 56 55 54 52 51 50 49 47 45 44 43 42 42 42 43 44 45 46 47 47 47 47
67 67 68 69 69 69 68 67 66 64 62 61 61 61 60 59 58 57 57 56 56 55 54 53 51 49 48 47 46 44 42 40 40 40 41 42 43 44 44 45 45 45 44 42
67 68 69 68 67 65 63 62 61 60 59 59 59 58 58 57 56 55 54 53 52 50 50 49 48 46 45 44 42 40 39 39 40 41 41 42 43 43 44 44 44 42 40 38
66 65 64 63 61 60 59 58 57 57 58 58 57 56 55 55 54 53 52 50 49 47 46 45 44 43 41 40 39 39 39 39 40 40 41 41 42 42 42 41 40 38 36 34
63 61 60 58 57 56 56 56 56 56 56 56 55 54 53 52 52 50 49 47 47 46 44 42 40 38 37 37 37 37 38 38 39 39 40 40 40 40 39 38 36 34 33 31
59 58 56 55 54 54 54 55 55 54 52 52 53 52 51 50 49 48 46 44 43 43 40 39 37 36 35 35 35 36 36 37 37 38 38 38 38 37 36 34 32 31 30 29
57 56 54 54 53 52 52 52 52 51 49 49 50 50 49 47 46 44 43 43 41 39 37 36 35 34 34 34 34 34 35 35 36 36 36 36 35 33 32 31 29 28 26 25
55 54 53 53 52 51 49 49 49 49 48 47 47 47 47 46 44 42 39 38 38 36 35 34 33 33 32 32 32 33 33 33 34 34 34 33 32 30 29 28 26 25 23 22
53 52 52 51 51 50 48 47 47 46 45 45 45 46 46 44 41 40 39 37 36 35 34 33 32 32 31 31 31 32 31 31 32 33 32 31 29 27 26 25 24 23 21 20
52 51 50 50 49 47 46 45 44 43 43 42 43 43 43 42 40 37 36 36 35 33 32 31 31 30 29 29 29 30 30 30 31 31 30 29 27 25 24 23 22 20 20 20
51 50 49 48 46 45 43 42 41 41 41 40 40 40 40 39 38 36 35 34 33 31 30 29 29 28 28 27 28 28 28 29 29 29 28 26 24 23 22 21 20 19 19 20
49 48 46 44 42 41 40 40 39 39 39 39 38 38 37 37 35 34 33 32 31 29 28 27 27 27 26 26 27 27 27 27 27 27 26 24 22 21 20 20 19 19 19 19
Wind_Direction
291 292 292 296 299 299 301 304 306 309 310 310 310 312 312 312 312 311 311 311 311 310 310 309 308 307 307 306 305 304 303 301 300 298 296 294 292 290 289 289 289 289 289 290
290 291 291 295 296 296 299 301 303 306 308 308 310 311 311 310 310 310 310 310 309 309 308 308 308 307 307 306 306 305 303 302 300 298 297 295 294 292 291 290 289 289 290 290
288 288 290 294 295 297 299 301 302 304 306 307 309 310 310 309 308 308 308 308 307 307 307 307 307 307 306 305 304 304 303 301 300 298 297 296 295 294 292 291 290 290 291 291
287 287 289 295 297 298 299 301 302 303 305 306 307 308 308 308 307 307 307 307 307 307 306 306 306 306 305 304 304 303 302 301 300 298 297 296 295 294 292 291 290 290 291 292
289 290 292 295 296 297 299 301 302 303 304 305 305 306 307 307 307 307 307 306 306 306 306 305 305 305 304 304 303 302 302 301 299 298 296 295 295 294 293 292 291 290 291 292
289 291 295 298 298 299 300 301 303 304 305 305 305 305 306 306 306 306 306 306 305 305 305 305 305 304 304 304 303 302 302 301 299 298 296 295 295 294 293 293 292 292 292 293
289 291 296 297 298 300 301 303 304 305 305 305 306 306 306 305 305 305 305 305 305 305 305 305 305 304 304 304 303 302 301 300 299 298 297 296 295 294 294 293 293 293 293 294
289 291 295 297 298 300 301 303 304 304 304 304 304 304 304 304 304 304 304 304 304 305 305 305 305 304 304 303 302 302 301 300 298 297 296 296 295 295 295 294 294 295 295 295
289 292 295 297 299 300 301 302 303 303 303 302 303 303 303 303 304 304 304 305 305 305 306 306 305 305 304 303 302 301 300 299 298 298 297 296 296 296 296 296 296 296 296 296
287 291 293 295 297 298 299 300 301 301 301 301 302 303 303 304 304 305 305 306 306 306 306 306 305 304 303 303 302 301 301 300 300 299 298 297 297 297 298 298 298 297 297 297
289 293 294 296 298 298 299 300 301 301 302 302 302 303 303 304 305 305 306 306 306 306 306 306 305 305 304 304 303 303 302 302 301 301 300 299 299 299 299 299 299 299 299 299
293 295 296 297 298 298 299 300 300 301 301 302 303 303 304 305 306 306 306 306 306 306 306 306 306 305 305 305 305 304 304 304 303 303 302 301 301 301 301 302 302 302 302 301
294 295 296 297 297 298 299 299 300 301 302 302 303 304 305 306 306 307 307 307 307 307 307 307 307 307 307 306 306 307 307 307 306 306 305 304 304 304 303 303 304 304 304 304
294 295 295 296 297 298 299 300 301 302 303 303 304 305 305 306 306 307 308 308 308 308 308 308 308 308 308 308 308 308 309 309 308 308 307 307 307 307 307 307 306 306 306 305
294 295 295 296 297 298 299 300 301 302 303 304 305 305 306 306 307 308 308 308 308 308 308 308 308 309 309 309 310 310 310 310 310 310 310 310 310 310 309 309 309 309 308 308
294 295 296 297 298 299 300 301 302 303 304 304 304 305 306 307 307 308 308 308 308 308 308 308 309 310 310 310 311 311 312 312 312 312 312 312 312 312 311 311 312 312 311 311
294 295 296 298 299 300 301 302 302 303 303 304 304 305 306 307 308 308 309 309 309 309 309 309 310 311 311 312 313 313 313 313 314 314 314 314 314 314 314 314 314 314 314 315
295 296 298 299 300 301 301 302 302 302 302 304 305 306 307 308 309 309 310 310 310 310 309 310 311 312 313 313 314 315 315 315 315 316 316 316 316 317 316 316 316 316 316 317
296 297 298 299 300 300 300 300 300 301 302 303 305 307 308 309 310 310 311 312 312 311 311 311 312 312 313 314 315 316 316 317 317 318 318 319 319 319 319 319 319 318 318 319
297 297 298 299 299 299 299 299 300 301 302 303 305 306 308 309 310 311 312 313 312 313 314 314 313 313 314 315 316 317 318 319 319 320 321 321 321 321 321 320 320 320 321 321
296 297 297 297 298 298 298 299 300 301 302 304 305 307 308 310 311 312 312 313 313 313 314 315 314 315 316 317 317 318 320 321 322 323 324 324 324 324 324 324 324 324 325 324
296 296 296 296 296 296 297 298 299 301 302 304 305 307 309 310 311 312 313 314 315 315 315 315 315 316 318 318 319 320 322 323 325 326 327 328 328 328 329 329 329 329 329 329
295 295 295 295 295 296 296 297 299 301 302 304 306 307 309 311 312 312 313 313 314 315 316 315 316 317 318 319 320 322 323 325 327 329 330 331 331 332 333 334 335 335 336 335
294 294 294 294 294 295 295 296 297 299 301 304 306 307 308 310 312 312 313 314 314 315 316 316 317 318 319 320 322 324 325 327 329 331 333 334 334 335 336 338 340 341 342 342
292 293 293 293 293 294 294 295 297 298 300 303 304 306 307 309 311 312 313 313 314 315 316 316 318 319 320 321 323 325 327 328 330 332 334 335 335 336 338 340 342 344 345 344
291 291 292 293 293 293 294 295 296 298 300 302 304 305 306 307 309 310 311 312 313 314 315 316 317 319 320 321 324 326 328 329 331 333 334 335 336 337 339 340 342 344 345 345
290 290 291 292 292 292 294 295 297 298 300 302 304 305 306 307 307 308 309 310 311 312 313 315 317 319 320 322 325 327 329 330 332 333 334 335 336 338 339 341 343 345 346 347
Height
5761 5759 5757 5756 5754 5750 5747 5744 5741 5740 5736 5733 5729 5725 5721 5716 5710 5705 5700 5694 5688 5682 5676 5670 5664 5657 5651 5644 5637 5630 5623 5616 5610 5603 5596 5590 5585 5580 5575 5570 5565 5559 5554 5549
5754 5751 5749 5749 5747 5743 5741 5738 5734 5731 5728 5724 5720 5716 5711 5706 5700 5695 5689 5683 5677 5671 5664 5658 5651 5645 5638 5630 5623 5616 5609 5602 5595 5588 5582 5575 5570 5564 5559 5553 5548 5543 5538 5533
5746 5744 5742 5742 5739 5736 5733 5730 5727 5723 5720 5715 5710 5706 5701 5695 5689 5683 5678 5671 5665 5658 5651 5644 5637 5630 5623 5616 5608 5601 5594 5586 5579 5572 5566 5560 5554 5548 5542 5537 5532 5527 5522 5516
5737 5736 5735 5736 5731 5727 5724 5722 5718 5714 5709 5705 5700 5695 5690 5683 5677 5671 5664 5658 5651 5644 5637 5629 5622 5614 5607 5599 5592 5585 5577 5570 5562 5556 5549 5543 5537 5531 5525 5520 5515 5510 5505 5499
5727 5725 5725 5727 5722 5717 5714 5712 5708 5703 5699 5694 5689 5685 5679 5671 5664 5657 5650 5643 5635 5628 5620 5613 5605 5597 5590 5582 5574 5567 5560 5553 5545 5538 5532 5526 5520 5514 5508 5503 5498 5492 5487 5482
5718 5715 5715 5716 5711 5706 5704 5700 5696 5691 5686 5681 5676 5671 5666 5657 5650 5642 5634 5627 5619 5611 5603 5595 5587 5579 5572 5564 5556 5549 5542 5535 5527 5520 5514 5508 5502 5496 5491 5485 5480 5475 5470 5464
5709 5705 5705 5704 5699 5696 5693 5689 5684 5678 5673 5667 5661 5655 5649 5641 5634 5625 5618 5609 5601 5593 5585 5576 5568 5560 5553 5546 5538 5531 5524 5517 5510 5503 5496 5490 5485 5479 5473 5468 5463 5458 5453 5447
5700 5697 5698 5691 5688 5684 5681 5676 5670 5665 5659 5653 5647 5639 5632 5625 5617 5609 5600 5592 5583 5575 5567 5558 5549 5541 5535 5527 5520 5513 5506 5499 5492 5486 5479 5473 5467 5462 5456 5450 5445 5440 5435 5430
5690 5689 5685 5680 5675 5671 5666 5662 5656 5650 5644 5637 5631 5624 5616 5608 5600 5591 5582 5573 5564 5556 5549 5540 5530 5522 5515 5509 5501 5495 5489 5482 5475 5469 5462 5456 5450 5444 5439 5433 5428 5423 5417 5412
5678 5678 5675 5669 5664 5660 5654 5648 5642 5635 5628 5621 5614 5606 5598 5590 5581 5572 5563 5554 5545 5537 5530 5523 5514 5505 5497 5490 5483 5477 5471 5465 5458 5452 5446 5440 5433 5427 5422 5416 5411 5406 5400 5395
5666 5665 5661 5656 5650 5645 5639 5633 5626 5619 5612 5604 5596 5588 5580 5571 5562 5554 5545 5536 5527 5519 5512 5505 5497 5490 5481 5473 5466 5461 5455 5448 5442 5435 5429 5424 5418 5411 5405 5400 5393 5388 5383 5378
5654 5650 5645 5641 5635 5629 5623 5617 5610 5603 5596 5587 5578 5570 5562 5553 5544 5535 5527 5519 5511 5503 5496 5489 5481 5474 5466 5458 5451 5445 5439 5433 5426 5420 5414 5408 5403 5398 5391 5384 5378 5372 5366 5360
5639 5634 5630 5625 5619 5612 5606 5600 5592 5585 5577 5569 5561 5552 5544 5536 5527 5519 5511 5502 5494 5487 5480 5473 5466 5459 5451 5443 5436 5430 5423 5417 5411 5405 5399 5393 5388 5383 5378 5373 5365 5358 5351 5344
5623 5619 5614 5609 5603 5596 5589 5582 5575 5567 5559 5551 5543 5535 5527 5519 5512 5504 5496 5488 5480 5473 5466 5458 5451 5444 5436 5429 5423 5416 5410 5404 5397 5391 5385 5380 5374 5369 5363 5358 5353 5346 5338 5330
5607 5602 5597 5591 5585 5579 5572 5565 5558 5551 5543 5535 5527 5519 5511 5504 5497 5490 5482 5473 5466 5460 5452 5444 5437 5431 5423 5416 5410 5404 5397 5391 5385 5379 5373 5367 5362 5356 5350 5344 5338 5332 5324 5317
5591 5585 5580 5574 5568 5562 5555 5547 5540 5534 5526 5519 5512 5505 5497 5490 5483 5476 5468 5460 5452 5446 5438 5431 5424 5418 5411 5404 5398 5392 5386 5379 5373 5368 5362 5356 5350 5344 5338 5331 5324 5317 5310 5303
5574 5569 5563 5557 5551 5545 5538 5531 5524 5517 5511 5504 5498 5491 5484 5477 5470 5463 5456 5448 5440 5432 5425 5418 5412 5405 5399 5393 5386 5381 5375 5369 5363 5357 5352 5345 5339 5332 5326 5319 5312 5305 5298 5290
5557 5551 5546 5540 5534 5528 5522 5515 5509 5502 5496 5489 5483 5477 5470 5463 5456 5449 5443 5435 5428 5421 5414 5406 5400 5394 5388 5382 5376 5371 5365 5360 5354 5348 5341 5335 5328 5321 5314 5307 5300 5294 5287 5280
5540 5535 5529 5524 5517 5511 5506 5500 5494 5489 5482 5476 5470 5464 5457 5450 5443 5436 5430 5423 5415 5409 5404 5397 5390 5384 5378 5372 5367 5362 5356 5350 5344 5338 5331 5325 5318 5311 5304 5297 5290 5284 5277 5271
5524 5519 5514 5508 5503 5497 5491 5486 5480 5475 5469 5462 5456 5451 5445 5439 5431 5425 5418 5412 5404 5397 5391 5386 5380 5374 5369 5364 5359 5353 5347 5341 5335 5329 5322 5316 5309 5302 5295 5288 5281 5275 5269 5264
5508 5503 5498 5493 5489 5484 5478 5471 5466 5462 5456 5450 5444 5438 5432 5427 5420 5414 5407 5401 5396 5388 5382 5376 5371 5366 5361 5356 5351 5345 5339 5333 5327 5321 5314 5307 5300 5294 5287 5280 5274 5268 5263 5257
5493 5488 5483 5478 5474 5470 5465 5458 5453 5448 5443 5438 5432 5426 5421 5416 5410 5404 5397 5390 5385 5379 5373 5368 5363 5358 5353 5348 5343 5338 5332 5326 5320 5314 5307 5300 5293 5287 5280 5274 5268 5263 5257 5252
5477 5472 5468 5463 5459 5455 5451 5446 5440 5436 5431 5426 5421 5415 5409 5404 5398 5392 5388 5383 5376 5371 5365 5360 5355 5350 5346 5341 5336 5331 5325 5320 5314 5308 5301 5295 5288 5282 5276 5270 5265 5259 5254 5249
5461 5457 5453 5448 5444 5440 5437 5434 5429 5424 5420 5415 5410 5404 5398 5394 5389 5384 5377 5372 5367 5362 5357 5352 5348 5343 5338 5334 5329 5324 5319 5314 5308 5303 5296 5290 5284 5278 5273 5268 5262 5257 5253 5248
5445 5442 5438 5434 5430 5427 5423 5420 5417 5413 5409 5405 5400 5394 5389 5383 5378 5374 5369 5364 5359 5354 5350 5345 5341 5336 5332 5328 5323 5319 5314 5309 5303 5298 5292 5286 5281 5276 5271 5266 5261 5256 5252 5248
5431 5427 5424 5420 5416 5413 5410 5407 5404 5401 5397 5393 5390 5385 5379 5374 5369 5365 5360 5356 5351 5347 5342 5338 5334 5330 5326 5322 5318 5313 5309 5304 5299 5294 5288 5283 5278 5273 5269 5264 5260 5255 5251 5247
5416 5413 5410 5407 5404 5400 5398 5395 5392 5389 5385 5382 5378 5374 5369 5365 5360 5356 5352 5348 5344 5340 5336 5332 5328 5325 5321 5317 5313 5309 5304 5300 5295 5290 5285 5280 5276 5271 5267 5263 5259 5255 5251 5246